Mount Holly, NJ

8:46 PM EDT on October 22, 2019 (GMT -0400)
South Jersey Regional

Weather History for KVAY - September, 2019

Change the Weather History Date:

Tuesday, September 17, 2019

  Actual Average (KPNE) Record (KPNE)
Temperature  
Mean Temperature 66 °F -  
Max Temperature 79 °F 75 °F 87 °F (2005)
Min Temperature 54 °F 56 °F 46 °F (2007)
Cooling Degree Days 2    
Growing Degree Days 16 (Base 50)    
Moisture  
Dew Point 54 °F    
Average Humidity 64    
Maximum Humidity 93    
Minimum Humidity 33    
Precipitation  
Precipitation 0.00 in - - ()
Sea Level Pressure  
Sea Level Pressure 30.10 in    
Wind  
Wind Speed 3 mph (NE)    
Max Wind Speed 8 mph    
Max Gust Speed -    
Visibility 10 miles    
Events      
Averages and records for this station are not official NWS values.
T = Trace of Precipitation, MM = Missing Value Source: NWS Daily Summary

Daily Weather History Graph

Daily Weather History Graph

Search for Another Location

Airport or City:

Astronomy

Sep. 17, 2019 Rise Set
Actual Time 6:42 AM EDT 7:05 PM EDT
Civil Twilight 6:14 AM EDT 7:32 PM EDT
Nautical Twilight 5:43 AM EDT 8:04 PM EDT
Astronomical Twilight 5:10 AM EDT 8:36 PM EDT
Moon 9:07 PM EDT (9/17) 9:44 AM EDT (9/17)
Length of Visible Light 13h 17m
Length of Day
12h 23m
Waning Gibbous, 89% of the Moon is Illuminated
Sep 17
Waning Gibbous
Sep 21
Last Quarter
Sep 28
New
Oct 5
First Quarter
Oct 13
Full

Hourly Weather History & Observations

Time (EDT) Temp. Dew Point Humidity Pressure Visibility Wind Dir Wind Speed Gust Speed Precip Events Conditions
12:54 AM 66.0 °F 64.0 °F 93% 30.04 in 10.0 mi NNE 3.5 mph - N/A   Mostly Cloudy
1:54 AM 66.0 °F 63.0 °F 90% 30.05 in 10.0 mi Calm Calm - N/A   Partly Cloudy
2:54 AM 64.9 °F 63.0 °F 93% 30.05 in 8.0 mi Calm Calm - N/A   Overcast
3:54 AM 66.9 °F 64.0 °F 90% 30.05 in 10.0 mi Calm Calm - N/A   Overcast
4:54 AM 68.0 °F 62.1 °F 81% 30.06 in 10.0 mi NE 3.5 mph - N/A   Overcast
5:54 AM 66.9 °F 57.0 °F 70% 30.08 in 10.0 mi NE 4.6 mph - N/A   Overcast
6:54 AM 64.9 °F 55.0 °F 70% 30.10 in 10.0 mi NNE 5.8 mph - N/A   Mostly Cloudy
7:54 AM 66.0 °F 55.0 °F 68% 30.12 in 10.0 mi NE 8.1 mph - N/A   Mostly Cloudy
8:54 AM 68.0 °F 55.0 °F 63% 30.14 in 10.0 mi NE 5.8 mph - N/A   Clear
9:54 AM 71.1 °F 53.1 °F 53% 30.15 in 10.0 mi Variable 4.6 mph - N/A   Clear
10:54 AM 73.0 °F 51.1 °F 46% 30.15 in 10.0 mi North - - N/A   Clear
11:54 AM 73.9 °F 50.0 °F 43% 30.14 in 10.0 mi ENE 6.9 mph - N/A   Clear
12:54 PM 75.0 °F 50.0 °F 41% 30.14 in 10.0 mi North 8.1 mph - N/A   Clear
1:54 PM 75.9 °F 50.0 °F 40% 30.12 in 10.0 mi NE 4.6 mph - N/A   Clear
2:54 PM 78.1 °F 48.0 °F 35% 30.09 in 10.0 mi North 8.1 mph - N/A   Clear
3:54 PM 78.1 °F 48.9 °F 36% 30.09 in 10.0 mi Variable 6.9 mph - N/A   Clear
4:54 PM 77.0 °F 46.0 °F 33% 30.07 in 10.0 mi NNE 6.9 mph - N/A   Clear
5:54 PM 75.9 °F 46.9 °F 36% 30.08 in 10.0 mi NNE 3.5 mph - N/A   Clear
6:54 PM 71.1 °F 50.0 °F 47% 30.09 in 10.0 mi Calm Calm - N/A   Clear
7:54 PM 64.9 °F 52.0 °F 63% 30.11 in 10.0 mi SE 3.5 mph - N/A   Clear
8:54 PM 60.1 °F 53.1 °F 78% 30.13 in 10.0 mi Calm Calm - N/A   Clear
9:54 PM 59.0 °F 54.0 °F 83% 30.14 in 10.0 mi Calm Calm - N/A   Clear
10:54 PM 55.9 °F 53.1 °F 90% 30.14 in 10.0 mi Calm Calm - N/A   Clear
11:54 PM 54.0 °F 52.0 °F 93% 30.14 in 10.0 mi Calm Calm - N/A   Unknown